AUA116 LIRQ-LOWW

Flight info

Callsign AUA116
Flight time 0h 38m
Altitude 34000
Route GAVRA DCT LAPNA LAPNA2W
Aircraft A319/M-SDE3FGHIRWY/LB1

Departure

Time 2026-04-20 18:32
Airport Florence Airport, Peretola (LIRQ)

Arrival

Time 2026-04-20 19:11
Airport Vienna International Airport (LOWW)
Time Latitude Longitude Altitude Speed Heading
2026-04-20 18:07 43.80320 11.20093 126 ft 0 kts 129°
2026-04-20 18:23 43.80323 11.20088 126 ft 3 kts 129°
2026-04-20 18:23 43.80340 11.20060 122 ft 4 kts 129°
2026-04-20 18:24 43.80357 11.20032 125 ft 4 kts 127°
2026-04-20 18:24 43.80366 11.20001 125 ft 4 kts 72°
2026-04-20 18:24 43.80354 11.19969 124 ft 4 kts 68°
2026-04-20 18:24 43.80351 11.19960 125 ft 0 kts 81°
2026-04-20 18:26 43.80352 11.19970 124 ft 3 kts 80°
2026-04-20 18:27 43.80368 11.20025 126 ft 8 kts 42°
2026-04-20 18:27 43.80417 11.20040 131 ft 7 kts
2026-04-20 18:27 43.80459 11.20046 132 ft 6 kts
2026-04-20 18:27 43.80499 11.20029 133 ft 7 kts 313°
2026-04-20 18:28 43.80546 11.19990 133 ft 11 kts
2026-04-20 18:28 43.80635 11.20020 132 ft 15 kts 14°
2026-04-20 18:28 43.80727 11.20080 133 ft 15 kts 45°
2026-04-20 18:28 43.80796 11.20185 132 ft 16 kts 47°
2026-04-20 18:29 43.80875 11.20306 127 ft 18 kts 48°
2026-04-20 18:29 43.80964 11.20446 126 ft 21 kts 49°
2026-04-20 18:29 43.81071 11.20612 128 ft 24 kts 48°
2026-04-20 18:29 43.81187 11.20791 127 ft 26 kts 48°
2026-04-20 18:30 43.81307 11.20979 133 ft 26 kts 48°
2026-04-20 18:30 43.81426 11.21158 133 ft 19 kts 47°
2026-04-20 18:30 43.81480 11.21273 132 ft 14 kts 72°
2026-04-20 18:30 43.81510 11.21343 138 ft 3 kts 32°
2026-04-20 18:31 43.81517 11.21344 139 ft 0 kts 11°
2026-04-20 18:31 43.81532 11.21333 139 ft 5 kts 308°
2026-04-20 18:31 43.81506 11.21285 133 ft 0 kts 229°
2026-04-20 18:31 43.81504 11.21283 133 ft 0 kts 229°
2026-04-20 18:32 43.81503 11.21282 133 ft 5 kts 229°
2026-04-20 18:32 43.81274 11.20924 133 ft 90 kts 228°
2026-04-20 18:32 43.80709 11.20050 195 ft 145 kts 230°
2026-04-20 18:32 43.80101 11.18958 766 ft 146 kts 243°
2026-04-20 18:33 43.80098 11.17551 1360 ft 157 kts 289°
2026-04-20 18:33 43.80513 11.16067 1836 ft 176 kts 277°
2026-04-20 18:33 43.80476 11.14255 2211 ft 202 kts 268°
2026-04-20 18:33 43.80544 11.12300 3030 ft 208 kts 274°
2026-04-20 18:34 43.80683 11.10330 4027 ft 208 kts 275°
2026-04-20 18:34 43.80831 11.08333 4989 ft 210 kts 275°
2026-04-20 18:34 43.81169 11.06295 5602 ft 232 kts 295°
2026-04-20 18:34 43.82365 11.04629 6168 ft 262 kts 330°
2026-04-20 18:35 43.84208 11.04245 7024 ft 281 kts
2026-04-20 18:35 43.86002 11.05402 7982 ft 295 kts 39°
2026-04-20 18:35 43.87138 11.07790 8928 ft 305 kts 72°
2026-04-20 18:35 43.87280 11.10730 9879 ft 311 kts 98°
2026-04-20 18:36 43.86785 11.13683 10466 ft 328 kts 108°
2026-04-20 18:36 43.86045 11.16814 10835 ft 350 kts 109°
2026-04-20 18:36 43.84567 11.23924 12467 ft 365 kts 103°
2026-04-20 18:36 43.82841 11.38174 15412 ft 386 kts 98°
2026-04-20 18:37 43.81129 11.53258 18121 ft 408 kts 99°
2026-04-20 18:37 43.79214 11.69109 20547 ft 426 kts 99°
2026-04-20 18:37 43.80803 11.85087 22968 ft 427 kts 55°
2026-04-20 18:37 43.89064 11.96717 24961 ft 429 kts 36°
2026-04-20 18:38 43.97983 12.08058 26773 ft 440 kts 36°
2026-04-20 18:38 44.07132 12.19635 28542 ft 450 kts 36°
2026-04-20 18:38 44.16498 12.31512 30219 ft 460 kts 35°
2026-04-20 18:38 44.25907 12.43501 31482 ft 470 kts 35°
2026-04-20 18:39 44.35539 12.55865 33220 ft 468 kts 35°
2026-04-20 18:39 44.42018 12.64207 33984 ft 469 kts 34°
2026-04-20 18:39 44.54344 12.80154 34016 ft 449 kts 34°
2026-04-20 18:39 44.63579 12.92157 34029 ft 453 kts 34°
2026-04-20 18:40 44.82057 13.16299 33807 ft 457 kts 34°
2026-04-20 18:40 44.88156 13.24341 33954 ft 456 kts 34°
2026-04-20 18:40 44.97484 13.36675 33830 ft 457 kts 34°
2026-04-20 18:41 45.15654 13.60870 33902 ft 448 kts 35°
2026-04-20 18:41 45.24779 13.73102 34013 ft 447 kts 35°
2026-04-20 18:41 45.33871 13.85341 33986 ft 451 kts 35°
2026-04-20 18:42 45.52090 14.10034 33983 ft 451 kts 35°
2026-04-20 18:42 45.70229 14.34879 34003 ft 452 kts 36°
2026-04-20 18:43 45.88395 14.59966 34021 ft 453 kts 36°
2026-04-20 18:43 46.02377 14.79470 34033 ft 454 kts 37°
2026-04-20 18:44 46.06911 14.85805 34035 ft 454 kts 37°
2026-04-20 18:44 46.11434 14.92154 34038 ft 454 kts 37°
2026-04-20 18:45 46.15948 14.98512 34041 ft 454 kts 37°
2026-04-20 18:45 46.20468 15.04884 34040 ft 454 kts 37°
2026-04-20 18:46 46.24988 15.11264 34039 ft 454 kts 37°
2026-04-20 18:46 46.29460 15.17608 34036 ft 454 kts 37°
2026-04-20 18:47 46.34024 15.23877 34033 ft 446 kts 28°
2026-04-20 18:47 46.36637 15.26143 34041 ft 435 kts 19°
2026-04-20 18:47 46.39317 15.28181 34041 ft 435 kts 19°
2026-04-20 18:48 46.44677 15.32241 34041 ft 434 kts 19°
2026-04-20 18:48 46.50036 15.36303 34051 ft 435 kts 19°
2026-04-20 18:49 46.52729 15.38353 33909 ft 436 kts 19°
2026-04-20 18:49 46.55418 15.40402 33636 ft 436 kts 19°
2026-04-20 18:49 46.58104 15.42452 33367 ft 436 kts 19°
2026-04-20 18:49 46.60790 15.44503 33102 ft 437 kts 19°
2026-04-20 18:50 46.63483 15.46560 32831 ft 438 kts 18°
2026-04-20 18:50 46.66183 15.48622 32567 ft 439 kts 18°
2026-04-20 18:50 46.68856 15.50667 32309 ft 440 kts 18°
2026-04-20 18:50 46.71567 15.52749 32023 ft 440 kts 18°
2026-04-20 18:51 46.74264 15.54829 31395 ft 437 kts 18°
2026-04-20 18:51 46.76943 15.56898 30798 ft 434 kts 18°
2026-04-20 18:51 46.79605 15.58953 30209 ft 432 kts 18°
2026-04-20 18:51 46.82254 15.60998 29557 ft 429 kts 18°
2026-04-20 18:52 46.84885 15.63026 28987 ft 424 kts 18°
2026-04-20 18:52 46.87480 15.65027 28417 ft 420 kts 18°
2026-04-20 18:52 46.90052 15.67014 27857 ft 416 kts 18°
2026-04-20 18:52 46.92595 15.68980 27300 ft 412 kts 17°
2026-04-20 18:53 46.95121 15.70934 26752 ft 409 kts 17°
2026-04-20 18:53 46.97628 15.72874 26216 ft 407 kts 17°
2026-04-20 18:53 47.00130 15.74812 25689 ft 405 kts 17°
2026-04-20 18:53 47.02615 15.76743 25183 ft 403 kts 17°
2026-04-20 18:54 47.05082 15.78665 24671 ft 401 kts 17°
2026-04-20 18:54 47.07543 15.80584 24181 ft 399 kts 17°
2026-04-20 18:54 47.09995 15.82496 23686 ft 398 kts 17°
2026-04-20 18:54 47.12392 15.84424 23243 ft 399 kts 22°
2026-04-20 18:55 47.14655 15.86682 23148 ft 388 kts 24°
2026-04-20 18:55 47.16832 15.88921 23062 ft 378 kts 25°
2026-04-20 18:55 47.18990 15.91151 22971 ft 380 kts 25°
2026-04-20 18:55 47.21150 15.93380 22876 ft 379 kts 25°
2026-04-20 18:56 47.23369 15.95632 22804 ft 396 kts 24°
2026-04-20 18:56 47.25665 15.97927 22725 ft 401 kts 25°
2026-04-20 18:56 47.27971 16.00259 22648 ft 403 kts 25°
2026-04-20 18:56 47.30267 16.02621 22374 ft 402 kts 26°
2026-04-20 18:57 47.32590 16.05028 21374 ft 413 kts 27°
2026-04-20 18:57 47.34943 16.07476 20737 ft 414 kts 28°
2026-04-20 18:57 47.37283 16.09927 20211 ft 411 kts 28°
2026-04-20 18:57 47.39601 16.12360 19714 ft 408 kts 28°
2026-04-20 18:58 47.41902 16.14775 19207 ft 403 kts 29°
2026-04-20 18:58 47.44173 16.17154 18544 ft 399 kts 29°
2026-04-20 18:58 47.46428 16.19509 17843 ft 394 kts 29°
2026-04-20 18:58 47.48655 16.21829 17163 ft 388 kts 30°
2026-04-20 18:59 47.50823 16.24085 16471 ft 383 kts 30°
2026-04-20 18:59 47.52988 16.26343 15800 ft 378 kts 30°
2026-04-20 18:59 47.55122 16.28574 15148 ft 372 kts 30°
2026-04-20 18:59 47.57225 16.30775 14500 ft 368 kts 31°
2026-04-20 19:00 47.59298 16.32949 13855 ft 363 kts 31°
2026-04-20 19:00 47.61341 16.35092 13195 ft 356 kts 31°
2026-04-20 19:00 47.63370 16.37223 12405 ft 354 kts 31°
2026-04-20 19:00 47.65356 16.39310 11900 ft 344 kts 31°
2026-04-20 19:01 47.67277 16.41336 11413 ft 334 kts 31°
2026-04-20 19:01 47.69124 16.43286 10906 ft 326 kts 31°
2026-04-20 19:01 47.70977 16.45241 10460 ft 318 kts 31°
2026-04-20 19:01 47.72706 16.47073 10326 ft 301 kts 30°
2026-04-20 19:02 47.74378 16.48842 9989 ft 292 kts 30°
2026-04-20 19:02 47.76017 16.50569 9804 ft 288 kts 30°
2026-04-20 19:02 47.77649 16.52287 9671 ft 288 kts 30°
2026-04-20 19:02 47.79280 16.54008 9508 ft 287 kts 31°
2026-04-20 19:03 47.80916 16.55735 9031 ft 289 kts 31°
2026-04-20 19:03 47.82547 16.57462 8593 ft 287 kts 31°
2026-04-20 19:03 47.84164 16.59181 8039 ft 282 kts 32°
2026-04-20 19:03 47.85751 16.60874 7426 ft 279 kts 32°
2026-04-20 19:04 47.87312 16.62539 6887 ft 274 kts 32°
2026-04-20 19:04 47.88847 16.64178 6370 ft 269 kts 33°
2026-04-20 19:04 47.90362 16.65795 5838 ft 266 kts 33°
2026-04-20 19:04 47.91861 16.67392 5346 ft 265 kts 33°
2026-04-20 19:05 47.93360 16.68988 4842 ft 265 kts 33°
2026-04-20 19:05 47.94848 16.70575 4471 ft 259 kts 33°
2026-04-20 19:05 47.96265 16.72093 4392 ft 243 kts 33°
2026-04-20 19:05 47.97597 16.73527 4291 ft 229 kts 33°
2026-04-20 19:06 47.98854 16.74901 4166 ft 219 kts 33°
2026-04-20 19:06 48.00053 16.76218 4036 ft 210 kts 33°
2026-04-20 19:06 48.01213 16.77480 3902 ft 202 kts 30°
2026-04-20 19:06 48.02501 16.78021 3759 ft 190 kts 356°
2026-04-20 19:07 48.03741 16.77537 3570 ft 184 kts 332°
2026-04-20 19:07 48.04706 16.76317 3375 ft 182 kts 308°
2026-04-20 19:07 48.05307 16.74661 3163 ft 181 kts 298°
2026-04-20 19:07 48.05861 16.72969 2921 ft 181 kts 299°
2026-04-20 19:08 48.06414 16.71283 2678 ft 181 kts 299°
2026-04-20 19:08 48.07493 16.67989 2232 ft 169 kts 299°
2026-04-20 19:08 48.07991 16.66470 1975 ft 159 kts 299°
2026-04-20 19:09 48.08461 16.65032 1768 ft 149 kts 299°
2026-04-20 19:09 48.08904 16.63681 1558 ft 141 kts 299°
2026-04-20 19:09 48.09322 16.62402 1371 ft 134 kts 298°
2026-04-20 19:09 48.09732 16.61164 1134 ft 132 kts 297°
2026-04-20 19:10 48.10133 16.59930 946 ft 132 kts 296°
2026-04-20 19:10 48.10533 16.58695 795 ft 132 kts 296°
2026-04-20 19:10 48.10934 16.57462 630 ft 131 kts 297°
2026-04-20 19:10 48.11296 16.56362 617 ft 98 kts 296°
2026-04-20 19:11 48.11529 16.55646 613 ft 55 kts 295°
2026-04-20 19:11 48.11660 16.55344 610 ft 28 kts 315°
2026-04-20 19:11 48.11763 16.55196 615 ft 17 kts 316°
2026-04-20 19:11 48.11835 16.55140 620 ft 5 kts 353°
2026-04-20 19:12 48.11838 16.55139 618 ft 1 kts 354°
2026-04-20 19:12 48.11849 16.55138 615 ft 2 kts 354°
2026-04-20 19:12 48.11876 16.55149 610 ft 7 kts 23°
2026-04-20 19:12 48.11929 16.55188 610 ft 8 kts 28°
2026-04-20 19:13 48.11940 16.55278 616 ft 12 kts 112°
2026-04-20 19:13 48.11896 16.55413 613 ft 16 kts 116°
2026-04-20 19:13 48.11853 16.55581 615 ft 19 kts 115°
2026-04-20 19:13 48.11792 16.55769 612 ft 21 kts 116°
2026-04-20 19:14 48.11728 16.55969 611 ft 21 kts 115°
2026-04-20 19:14 48.11672 16.56144 619 ft 15 kts 115°
2026-04-20 19:14 48.11664 16.56245 619 ft 10 kts 48°
2026-04-20 19:14 48.11726 16.56294 623 ft 11 kts 25°
2026-04-20 19:15 48.11752 16.56384 610 ft 11 kts 110°
2026-04-20 19:15 48.11717 16.56495 610 ft 12 kts 116°
2026-04-20 19:15 48.11689 16.56546 612 ft 5 kts 171°
2026-04-20 19:15 48.11657 16.56524 620 ft 6 kts 204°
2026-04-20 19:16 48.11629 16.56503 613 ft 0 kts 206°